Theta_e
305 306 306 307 310 310 312 314 317 321 317 315 313 305 308 309 310 317 318 315 315 321 320 321 320 319 320 320 321 321 320 321 323 323 322 322 320 322 323 323 323 324 330 336 338
305 306 305 305 306 308 309 312 314 317 319 316 314 307 308 308 311 317 315 317 317 318 322 323 323 320 320 320 321 320 321 323 321 320 320 320 322 322 322 322 322 323 328 336 337
305 304 305 305 305 306 307 308 312 315 319 318 314 307 308 307 315 314 314 318 323 321 321 321 321 320 320 320 321 320 321 322 323 322 321 323 323 323 321 320 322 322 325 326 325
305 304 305 305 304 305 306 307 309 312 315 319 314 307 307 312 316 322 321 318 322 321 321 319 321 321 319 319 320 319 320 321 321 321 321 322 323 322 322 322 322 323 323 323 328
304 304 304 304 304 303 304 305 306 310 315 317 315 308 307 314 316 320 319 321 323 321 319 321 322 320 319 318 319 318 318 320 320 320 320 321 321 321 322 323 322 322 322 323 324
303 303 303 303 303 303 303 304 305 309 314 317 315 309 308 315 313 318 319 320 322 322 321 322 322 320 319 318 316 318 318 319 320 320 320 319 319 320 321 322 322 322 322 322 322
303 302 301 303 302 302 302 304 304 307 312 314 315 310 309 311 316 318 318 317 318 321 322 321 322 320 320 320 320 319 320 318 319 320 318 320 318 318 320 319 319 319 319 321 320
301 301 301 301 301 301 302 303 304 303 310 314 314 310 311 310 314 314 316 317 319 321 322 322 323 321 320 320 320 319 319 321 319 319 319 319 319 318 319 319 319 319 319 318 320
300 300 300 300 300 301 301 302 302 302 304 314 313 310 312 313 312 314 313 316 319 320 322 322 322 320 319 319 320 319 319 319 319 318 319 318 319 318 319 319 318 318 319 320 319
299 299 300 300 301 301 301 301 300 301 303 310 311 311 312 313 313 314 313 317 320 322 321 320 319 320 319 320 322 320 319 318 318 318 318 318 317 315 319 318 316 317 318 319 320
299 299 300 300 301 301 302 301 302 306 305 313 311 312 313 313 312 313 314 316 318 321 322 319 320 321 317 317 318 319 320 317 315 315 314 314 313 312 313 313 314 315 315 317 318
300 300 300 301 301 302 302 302 302 304 305 308 311 313 312 312 312 312 316 317 318 319 315 318 319 319 318 318 320 318 316 315 314 314 313 312 313 312 312 312 313 313 314 315 316
300 300 300 301 301 303 302 303 302 302 303 311 312 313 312 313 313 312 316 316 316 318 317 316 315 316 317 317 317 315 315 314 314 312 311 310 311 311 311 311 312 312 313 314 315
299 300 301 301 303 302 303 304 302 301 305 313 314 313 312 313 313 314 316 315 316 316 316 316 314 313 315 316 315 315 312 313 314 312 312 310 312 309 310 310 310 312 313 314 314
299 300 300 301 302 303 303 304 303 303 309 312 314 312 312 314 313 314 315 314 315 316 315 316 315 314 313 314 313 314 312 312 312 311 309 310 309 309 309 310 310 309 312 314 315
300 300 302 303 303 303 304 304 302 304 307 313 312 313 313 313 313 313 313 313 313 315 314 313 312 312 312 312 311 311 311 311 311 310 305 309 310 309 309 310 311 309 312 313 314
302 304 303 303 303 304 304 301 301 302 305 311 314 313 313 314 313 313 313 314 313 313 312 314 313 311 312 312 311 311 308 303 306 312 309 310 310 309 309 310 310 309 312 313 313
303 303 304 303 305 304 302 304 304 308 311 313 312 313 314 313 313 314 313 312 311 311 308 308 308 311 310 311 311 311 309 305 310 311 311 310 312 311 310 311 311 312 313 313 313
303 304 304 305 304 303 304 303 306 312 310 313 312 312 313 312 313 313 313 312 310 311 310 309 312 311 310 311 311 312 309 309 309 308 302 308 307 307 308 308 307 308 310 310 312
304 304 304 304 304 304 306 310 308 309 311 311 311 312 313 313 313 312 312 311 311 310 309 313 313 312 312 311 311 309 309 309 303 303 309 308 308 309 309 309 308 307 310 314 312
303 304 304 304 304 304 307 307 311 310 311 312 311 312 311 312 312 312 311 311 310 310 310 311 311 310 311 310 310 310 311 311 308 306 308 311 309 307 310 309 308 307 310 311 312
303 304 304 305 304 304 306 305 310 310 311 311 308 309 309 310 311 311 310 309 310 310 311 311 310 307 307 307 308 308 308 308 305 304 306 304 310 310 310 308 309 310 311 312 312
304 304 306 306 308 307 310 311 312 312 312 312 311 310 309 310 310 310 311 308 310 311 312 310 308 302 312 308 308 309 309 309 308 308 310 311 311 308 309 310 310 311 313 313 313
305 305 306 309 308 309 311 311 313 312 312 310 309 309 310 312 310 311 310 309 310 311 310 310 309 303 307 309 308 305 310 309 309 312 311 311 311 310 310 311 313 314 312 312 313
304 304 305 303 307 310 311 311 312 312 311 312 312 310 311 313 312 312 311 309 309 310 309 309 309 303 307 309 309 307 309 310 311 311 313 311 313 313 313 314 315 311 311 311 311
303 303 303 305 309 308 310 310 312 312 312 312 312 312 312 313 312 312 311 310 309 308 308 308 305 308 308 309 309 310 311 311 311 311 312 313 315 314 316 316 314 312 311 311 310
303 303 304 306 307 310 310 312 312 311 311 311 312 313 314 313 312 311 311 311 309 308 309 311 310 303 303 309 311 316 313 313 315 316 316 319 317 316 316 316 311 310 309 309 310
Wind_Speed
23 22 21 20 19 17 18 15 12 16 18 15 13 13 10 11 12 13 20 16 22 17 6 7 13 17 12 9 16 14 2 5 8 8 7 23 6 11 4 9 7 2 12 19 15
22 23 24 21 22 20 18 18 15 13 20 17 14 11 10 10 13 19 18 9 13 18 14 12 12 15 10 10 7 7 6 7 4 9 7 12 4 9 5 5 2 3 14 16 15
25 24 24 24 22 23 20 19 17 16 15 20 16 9 9 8 6 18 13 21 16 16 14 16 14 14 15 14 16 5 5 4 14 22 12 5 8 9 5 2 11 10 13 15 13
26 24 23 25 24 22 22 20 19 16 15 20 17 9 9 10 6 2 6 22 20 21 15 19 15 6 8 7 15 5 6 20 21 28 16 4 8 8 2 5 9 7 10 9 19
26 25 23 25 25 23 21 21 18 17 17 18 16 12 13 13 12 3 2 14 21 20 19 21 16 11 6 7 14 6 7 20 21 21 12 9 7 7 14 18 14 17 15 11 11
25 25 25 24 23 24 23 21 16 18 15 17 19 15 17 8 6 7 6 12 19 20 20 21 10 18 6 9 6 5 7 4 8 14 11 7 9 9 4 21 25 25 26 23 17
28 25 25 24 23 23 19 19 16 20 18 12 26 21 17 21 9 12 11 7 6 14 21 23 10 14 7 4 2 4 2 6 7 11 6 11 7 7 20 29 29 31 32 36 30
26 25 23 22 22 21 18 17 17 20 18 19 23 19 9 21 18 14 14 13 12 11 15 20 12 11 3 2 2 3 3 1 7 11 13 12 13 6 19 26 26 32 37 38 42
25 22 21 21 21 20 17 20 18 19 27 10 25 16 7 13 25 18 15 17 9 14 13 15 12 5 3 5 2 2 3 5 6 10 7 11 3 13 26 19 22 22 30 35 38
24 22 19 21 21 20 18 20 17 20 19 28 17 10 10 14 23 24 16 18 10 17 14 7 4 3 1 3 6 6 5 4 6 5 2 5 9 7 20 22 23 25 27 24 26
22 20 21 21 19 21 18 20 5 4 17 7 20 5 6 13 16 21 25 16 14 14 5 6 3 7 10 7 3 4 4 4 4 5 2 6 8 10 18 21 24 28 29 37 37
24 23 20 17 20 22 26 12 11 1 6 24 29 2 26 25 13 23 22 12 10 4 7 4 1 3 6 9 9 4 5 5 5 5 5 10 21 18 19 27 30 34 29 36 39
23 21 18 22 26 17 22 13 10 3 3 10 24 13 24 12 9 25 23 12 6 5 5 6 4 13 8 1 6 1 3 4 5 6 5 8 10 8 7 19 30 32 37 35 41
22 18 20 26 19 14 20 3 16 9 2 9 7 11 18 16 6 23 19 14 4 8 5 2 3 4 2 2 2 0 4 4 4 5 4 5 7 7 8 9 7 18 27 34 37
21 20 24 26 26 16 11 1 11 8 3 12 10 21 21 3 23 16 17 4 7 9 6 4 4 5 3 2 3 3 6 4 3 3 5 2 2 7 6 6 7 7 12 26 26
26 29 30 24 10 4 11 10 12 3 2 4 9 11 7 20 4 19 6 4 5 5 4 4 7 4 5 2 4 4 3 3 3 2 3 8 6 5 3 5 2 4 14 5 22
29 29 14 4 3 9 14 17 6 0 6 5 10 13 14 6 6 9 6 4 5 5 2 3 3 3 4 4 3 4 5 3 3 1 6 1 5 6 9 10 4 10 11 5 8
22 10 4 5 7 15 26 1 4 6 3 11 15 15 7 9 8 7 7 4 2 3 4 4 3 8 4 5 6 5 6 4 5 3 4 1 7 6 12 17 15 12 12 13 16
12 14 12 9 13 15 4 3 2 3 1 9 13 7 4 4 7 5 4 5 5 3 5 4 2 4 5 4 6 4 3 2 1 2 3 5 7 8 8 7 8 5 7 12 19
15 14 16 8 9 6 2 2 3 3 12 10 5 3 5 6 6 5 8 6 4 8 2 1 4 3 3 4 3 4 4 3 2 3 5 5 5 7 5 5 6 8 12 14 6
9 6 8 8 3 2 2 4 2 19 14 1 5 6 9 6 6 6 10 7 8 9 5 2 3 2 1 5 7 3 4 4 2 4 3 4 5 5 4 2 3 6 13 19 17
13 3 7 5 2 2 1 2 2 6 10 2 5 8 8 6 5 3 8 2 16 16 6 3 4 3 9 6 8 5 5 5 4 5 4 2 7 15 17 5 13 21 28 33 36
4 3 4 5 3 4 5 8 5 7 5 2 4 3 13 5 5 4 4 5 14 9 11 5 2 1 1 3 2 5 7 6 3 2 10 4 8 4 15 18 32 33 30 34 32
3 3 5 3 3 2 5 5 5 14 6 6 9 16 7 3 3 7 3 3 5 5 9 8 4 5 5 2 3 1 3 7 9 4 8 17 26 28 25 24 24 28 23 29 20
3 2 3 2 2 2 1 5 5 4 7 6 6 8 6 4 8 5 6 3 5 4 4 3 3 1 5 7 5 6 10 11 12 16 10 25 21 26 26 23 26 6 14 9 9
5 4 7 5 2 4 2 3 5 5 6 6 6 10 10 5 1 8 7 4 4 2 3 2 1 1 5 10 10 9 13 13 16 18 19 22 24 20 21 22 16 12 10 12 9
8 6 5 7 3 1 2 2 4 2 9 9 4 5 9 4 6 7 10 7 9 7 6 5 4 2 5 4 5 3 6 6 5 6 9 9 13 19 21 14 11 13 14 12 18
Wind_Direction
338 335 333 323 323 289 282 274 276 266 267 277 288 275 269 265 248 232 236 233 202 174 151 198 204 202 193 235 222 217 182 210 220 227 249 293 317 309 167 162 146 86 146 166 166
334 333 331 327 320 318 305 280 271 267 257 264 275 273 265 254 251 242 239 217 202 210 217 196 194 190 208 219 224 185 204 230 217 236 264 275 351 317 178 176 213 155 146 158 161
326 325 325 325 319 317 312 294 282 261 254 256 264 255 251 237 279 263 238 181 191 201 206 198 193 202 212 228 225 202 193 230 269 267 289 288 305 336 349 171 217 221 186 193 201
318 318 319 319 318 309 309 308 282 263 248 246 248 232 223 186 206 280 230 192 196 202 212 195 221 238 182 210 234 242 232 237 260 268 290 282 300 328 302 283 312 263 272 270 208
315 313 312 311 315 308 304 297 286 267 248 241 233 213 198 201 232 205 141 186 194 190 194 189 219 223 179 199 239 230 243 254 257 271 299 269 274 266 286 283 265 265 271 279 248
318 315 312 311 312 306 297 300 283 261 253 235 221 202 200 218 232 226 204 178 205 201 195 191 210 218 204 245 190 210 215 265 285 302 321 269 263 269 267 265 273 272 268 264 254
317 309 305 309 309 306 291 297 290 258 251 235 209 199 206 213 175 187 174 165 172 197 202 195 194 192 221 243 180 117 47 341 304 289 256 310 279 232 252 263 265 269 262 261 267
317 314 309 307 311 307 302 298 286 276 251 229 192 188 222 222 176 186 205 184 180 199 205 199 202 192 154 187 89 70 52 329 246 234 242 196 256 248 241 249 254 263 261 257 257
322 318 312 312 311 307 302 305 305 292 261 224 182 174 224 208 207 201 195 181 179 195 196 196 169 150 120 127 100 192 225 222 296 248 214 182 209 239 249 260 254 269 253 256 251
325 320 316 321 312 314 308 293 298 280 249 238 170 179 213 196 199 199 180 165 168 165 136 134 107 96 194 171 186 193 220 251 230 295 241 249 253 265 270 279 272 272 267 261 251
330 324 318 319 314 316 305 320 302 223 231 252 172 232 212 172 174 191 172 171 173 155 169 150 135 176 204 186 218 235 294 291 277 300 275 247 259 261 270 272 271 270 263 265 257
332 329 320 314 314 319 305 261 250 221 282 243 176 114 141 144 141 165 159 150 157 158 114 95 205 213 193 209 232 288 277 281 295 339 1 309 294 284 260 258 248 252 251 253 257
326 323 319 325 323 316 325 274 237 294 270 222 161 152 149 138 150 167 165 149 139 138 153 140 157 196 230 202 202 264 279 287 266 331 343 349 291 259 280 249 252 248 248 250 252
331 325 324 327 329 303 322 287 221 244 300 148 164 180 163 134 113 164 161 136 149 149 144 87 113 98 154 193 129 58 16 64 34 38 254 72 291 283 270 266 268 248 243 245 247
328 321 318 321 302 303 293 163 171 160 132 148 148 149 167 166 131 185 168 93 143 144 121 208 147 123 99 72 154 181 86 67 37 6 357 264 220 273 256 276 261 243 290 248 236
325 321 318 316 302 268 151 148 132 33 274 131 153 145 119 139 110 157 157 113 96 125 135 92 99 101 183 117 79 104 69 23 28 74 323 222 175 275 239 219 134 283 303 333 240
328 328 327 294 244 177 160 142 66 359 283 165 140 135 130 127 116 150 150 119 126 116 141 118 128 104 86 99 101 85 73 356 351 254 237 123 183 256 274 276 273 275 281 285 162
334 353 41 94 134 155 161 304 113 219 255 130 128 117 106 116 125 134 140 138 306 85 109 132 325 154 188 164 179 165 166 161 226 227 282 315 237 255 237 258 279 238 226 231 244
40 70 77 77 143 161 206 43 203 320 160 122 106 104 119 102 129 135 151 155 198 184 123 119 279 120 148 149 137 193 195 164 18 309 34 243 297 307 277 336 6 31 341 296 260
65 63 59 88 125 186 342 47 313 209 118 141 84 155 137 152 119 133 162 187 192 200 152 326 105 72 162 124 191 148 169 87 12 251 269 283 264 245 328 10 349 4 20 15 341
59 48 51 100 95 356 303 336 300 139 144 143 148 128 129 135 125 145 184 169 190 182 163 172 93 299 73 204 188 171 202 207 173 166 218 292 263 227 189 304 4 346 343 326 316
47 66 116 22 24 234 288 171 96 195 254 254 89 102 145 147 131 140 190 209 182 170 174 154 110 187 214 228 193 165 178 162 134 273 249 193 265 257 274 295 326 318 326 320 317
46 12 48 1 20 351 8 4 339 34 32 50 109 100 135 136 135 196 102 2 179 158 167 146 172 34 149 25 148 194 209 199 230 48 241 266 264 251 324 307 299 302 302 297 274
37 15 354 2 133 43 5 347 359 18 33 53 93 115 128 171 146 166 110 41 104 102 147 135 156 169 184 174 111 232 232 196 190 222 269 247 274 286 289 292 298 299 306 289 265
72 43 7 319 347 105 81 339 1 35 3 20 92 154 184 97 120 99 93 83 52 108 83 103 210 124 270 250 223 216 237 238 238 249 248 275 282 288 294 301 302 280 335 325 330
42 10 343 271 277 93 23 358 17 9 22 39 75 55 68 80 88 141 131 146 186 131 117 106 177 24 278 258 234 246 245 240 237 250 255 266 275 280 294 305 305 270 276 312 291
31 16 330 297 355 93 249 206 80 75 21 36 53 84 65 31 51 76 115 109 148 141 165 150 135 144 268 316 329 264 225 209 216 205 246 272 280 296 308 317 11 356 338 306 285